Regional Weather Roundup
Issued by NWS

Home | Current Version | Previous Version | Graphics & Text | Print | Product List | Glossary On
Versions: 1 2 3 4 5 6 7 8 9 10 11 12 13 14 15 16 17 18 19 20 21 22 23 24 25 26 27 28 29 30 31 32 33 34 35 36 37 38 39 40 41 42 43 44 45 46 47 48 49 50
186
ASUS44 KMEG 301210
RWRTN
TENNESSEE HOURLY STATE WEATHER ROUNDUP
NATIONAL WEATHER SERVICE MEMPHIS TN
700 AM CDT SAT JUL 30 2016

TNZ002-004-019-021-049-052-054-088>092-301300-
WEST TENNESSEE

CITY           SKY/WX    TMP DP  RH WIND       PRES   REMARKS
MEMPHIS INTL   CLOUDY    75  72  88 CALM      29.99S THUNDER
NWS MEMPHIS      N/A     72 N/A N/A MISG        N/A
JACKSON        CLOUDY    72  71  97 CALM      30.01R FOG
DYERSBURG      PTCLDY   N/A N/A N/A MISG        N/A
UNION CITY     CLOUDY    72  72 100 S3        29.99R
PARIS          CLOUDY    70  70 100 SW6       30.01R
LEXINGTON      CLOUDY    72  72 100 SW5       30.02R
$$

TNZ008-025-027-028-033-062-065-066-301300-
NORTH MIDDLE TENNESSEE

CITY           SKY/WX    TMP DP  RH WIND       PRES   REMARKS
NASHVILLE      CLOUDY    74  70  87 SW5       30.01R
CLARKSVILLE    CLOUDY    73  71  93 W3        29.99R
SMYRNA         CLOUDY    73  72  97 S3        30.02R FOG
COOKEVILLE     PTSUNNY   72  72 100 SW3       30.03R
CROSSVILLE     CLOUDY    71  69  93 CALM      30.08R
$$

TNZ061-075-076-078-094-096-097-301300-
SOUTH MIDDLE TENNESSEE

CITY           SKY/WX    TMP DP  RH WIND       PRES   REMARKS
TULLAHOMA      SUNNY     72  68  88 CALM      30.05R
WINCHESTER     PTSUNNY   72  70  94 CALM      30.05R
MCMINNVILLE    SUNNY     72  72 100 CALM      30.04R
COLUMBIA       SUNNY    N/A N/A N/A SW5       30.01R
SHELBYVILLE    SUNNY     72  72 100 CALM      30.04R
$$

TNZ017-018-042-046-047-301300-
NORTHEAST TENNESSEE

CITY           SKY/WX    TMP DP  RH WIND       PRES   REMARKS
TRI CITIES     CLOUDY    70  68  93 CALM      30.06R FOG
$$

TNZ012-013-036-069-073-074-301300-
CENTRAL EAST TENNESSEE

CITY           SKY/WX    TMP DP  RH WIND       PRES   REMARKS
KNOXVILLE      PTSUNNY   73  69  87 S3        30.02R
OAK RIDGE      CLOUDY    74  70  87 W3        30.04R
GATLINBURG     CLOUDY    70  70 100 CALM      30.03R
$$

TNZ083-085-099-301300-
SOUTHEAST TENNESSEE

CITY           SKY/WX    TMP DP  RH WIND       PRES   REMARKS
CHATTANOOGA    PTSUNNY   76  71  85 E3        30.02R
$$

SKY/WX REPORTED AS FAIR MEANS FEW OR NO CLOUDS BELOW
12 THOUSAND FEET.





USA.gov is the U.S. government's official web portal to all federal, state and local government web resources and services.